Regional Weather Roundup
Issued by NWS

Home | Current Version | Previous Version | Text Only | Print | Product List | Glossary On
Versions: 1 2 3 4 5 6 7 8 9 10 11 12 13 14 15 16 17 18 19 20 21 22 23 24 25 26 27 28 29 30 31 32 33 34 35 36 37 38 39 40 41 42 43 44 45 46 47 48 49 50
000
ASUS42 KFFC 310510
RWRGA
WEATHER ROUNDUP FOR GEORGIA
NATIONAL WEATHER SERVICE PEACHTREE CITY GA
100 AM EDT SAT JUL 31 2021

NOTE: "FAIR" INDICATES FEW OR NO CLOUDS BELOW 12,000 FEET WITH NO
SIGNIFICANT WEATHER AND/OR OBSTRUCTIONS TO VISIBILITY.

* = USE WITH CAUTION. THE STATIONS MARKED WITH AN ASTERISK MAY NOT
REPORT WEATHER SUCH AS PRECIPITATION, FOG, OR THUNDER AND ARE NOT
QUALITY CONTROLLED BY NWS.

THE REMARK "TC" DENOTES TEMPERATURE READING IN DEGREES CELSIUS.

GAZ001>058-310600-
NORTH GEORGIA

CITY           SKY/WX    TMP DP  RH WIND       PRES   REMARKS
ATLANTA        MOCLDY    81  71  71 W6        30.01F
ATHENS         MOCLDY    78  71  79 W3        29.99S
CHAMBLEE       MOCLDY    78  71  79 CALM      30.02S
PEACHTREE CITY MOCLDY    80  76  87 SW3       30.02S
ROME           CLOUDY    77  72  84 W6        30.00F
WEST ATLANTA   MOCLDY    78  73  84 CALM      30.02S
GAINESVILLE    MOCLDY    77  71  82 NW6       30.04F
CARTERSVILLE   CLOUDY    75  72  88 CALM      30.02S


CITY           SKY/WX    TMP DP  RH WIND       PRES   REMARKS
DALTON*        MOCLDY    73  72  94 CALM      30.03F
LAWRENCEVILLE* MOCLDY    78  71  79 W5        30.02S
MARIETTA       MOCLDY    77  72  85 W8        30.02S
KENNESAW*      MOCLDY    76  72  87 CALM      30.04S
CANTON*        FOG      N/A N/A N/A CALM      30.05S VSB 1/2
BLAIRSVILLE*   MOCLDY    71  70  98 CALM      30.09S FOG
$$

GAZ059>098-102>109-310600-
CENTRAL GEORGIA

CITY           SKY/WX    TMP DP  RH WIND       PRES   REMARKS
AUGUSTA-BUSH   PTCLDY    79  77  94 CALM      29.94F FOG
AUGUSTA-DANIEL PTCLDY    86  76  71 CALM      29.97S HX  96
COLUMBUS       PTCLDY    83  74  74 NW6       30.00S
MACON          MOCLDY    81  75  82 W6        29.99S
ROBINS AFB     PTCLDY    84  75  75 W9        29.98S HX  92


CITY           SKY/WX    TMP DP  RH WIND       PRES   REMARKS
LAGRANGE*      PTCLDY    78  74  86 CALM      30.03R
SYLVANIA*      PTCLDY    80  75  86 CALM      29.99S
$$

GAZ099>101-110>166-310600-
SOUTH GEORGIA

CITY           SKY/WX    TMP DP  RH WIND       PRES   REMARKS
SAVANNAH       MOCLDY    82  76  81 SW6       29.98S
VALDOSTA       MOCLDY    80  77  90 S3        30.03F
ALMA           MOCLDY    81  77  88 SW6       30.00F
ST SIMONS      MOCLDY    83  78  85 SW10      30.00R HX  93
FT STEWART     MOCLDY    83  76  80 SW6       29.97R HX  91
ALBANY         CLEAR     82  77  84 CALM      30.02F HX  90
HUNTER AFB     MOCLDY    83  77  81 SW3       29.96R HX  93
MOODY AFB      MOCLDY    81  76  85 SW6       30.02S
BRUNSWICK      MOCLDY    82  76  83 SW10      30.00S


CITY           SKY/WX    TMP DP  RH WIND       PRES   REMARKS
BAINBRIDGE*    CLEAR     79  77  94 S3        30.02S FOG
MOULTRIE*      CLEAR     79  77  94 CALM      30.03F
VIDALIA*       PTCLDY    81  77  89 SW3       30.00S
WAYCROSS*      MOCLDY    82  81  96 W7        30.02S HX  94
DOUGLAS*       MOCLDY    80  77  90 SW3       30.03F
$$



USA.gov is the U.S. government's official web portal to all federal, state and local government web resources and services.